Weather History for Palma de Mallorca, Spain

Change the Weather History Date:

Wednesday, November 23, 2011

  Actual Average Record
Temperature  
Mean Temperature 58 °F -  
Max Temperature 66 °F 60 °F 81 °F (2014)
Min Temperature 50 °F 42 °F 33 °F (1999)
Degree Days  
Heating Degree Days 6    
Growing Degree Days 8 (Base 50)    
Moisture  
Dew Point 55 °F    
Average Humidity 84    
Maximum Humidity 100    
Minimum Humidity 60    
Precipitation  
Precipitation 0.00 in 0.06 in - ()
Sea Level Pressure  
Sea Level Pressure 30.07 in    
Wind  
Wind Speed 6 mph ()    
Max Wind Speed 22 mph    
Max Gust Speed 34 mph    
Visibility 6.5 miles    
Events Rain    
Averages and records for this station are not official NWS values.
T = Trace of Precipitation, MM = Missing Value Source: Averaged Metar Reports

Daily Weather History Graph

Daily Weather History Graph

Search for Another Location

Airport:

Trip Planner

Search our weather history database for the weather conditions in past years. The results will help you decide how hot, cold, wet, or windy it might be!

Date:

Astronomy

Nov. 23, 2011 Rise Set
Actual Time 7:41 AM CET 5:28 PM CET
Civil Twilight 7:12 AM CET 5:58 PM CET
Nautical Twilight 6:39 AM CET 6:31 PM CET
Astronomical Twilight 6:07 AM CET 7:03 PM CET
Moon 5:27 AM CET (11/23) 3:58 PM CET (11/23)
Length of Visible Light 10h 45m
Length of Day
9h 47m
Waning Crescent, 5% of the Moon is Illuminated
Nov 23
Waning Crescent
Nov 25
New
Dec 2
First Quarter
Dec 10
Full
Dec 18
Last Quarter

Hourly Weather History & Observations

Time (CET) Temp. Dew Point Humidity Pressure Visibility Wind Dir Wind Speed Gust Speed Precip Events Conditions
12:00 AM 57.2 °F 57.2 °F 100% 29.92 in 6.2 mi Calm Calm - N/A   Partly Cloudy
12:30 AM 57.2 °F 55.4 °F 94% 29.92 in 6.2 mi Calm Calm - N/A   Partly Cloudy
1:00 AM 58 °F 57 °F 94% 29.94 in 9 mi North 2.3 mph - -   Partly Cloudy
1:00 AM 57.2 °F 57.2 °F 100% 29.92 in 6.2 mi Calm Calm - N/A   Scattered Clouds
1:30 AM 59.0 °F 57.2 °F 94% 29.92 in 6.2 mi Variable 1.2 mph - N/A   Partly Cloudy
2:00 AM 59.0 °F 57.2 °F 94% 29.92 in 6.2 mi NE 8.1 mph - N/A Rain Light Rain
2:30 AM 59.0 °F 57.2 °F 94% 29.92 in 6.2 mi Calm Calm - N/A   Partly Cloudy
3:00 AM 59.0 °F 57.2 °F 94% 29.92 in 6.2 mi NE 3.5 mph - N/A   Partly Cloudy
3:30 AM 59.0 °F 57.2 °F 94% 29.95 in 6.2 mi NNE 4.6 mph - N/A   Partly Cloudy
4:00 AM 59.0 °F 55.4 °F 88% 29.95 in 6.2 mi NE 10.4 mph - N/A   Partly Cloudy
4:30 AM 59.0 °F 55.4 °F 88% 29.95 in 6.2 mi NE 10.4 mph - N/A   Partly Cloudy
5:00 AM 59.0 °F 57.2 °F 94% 29.98 in 6.2 mi NNE 6.9 mph - N/A   Partly Cloudy
5:30 AM 59.0 °F 57.2 °F 94% 29.98 in 6.2 mi Variable 2.3 mph - N/A   Partly Cloudy
6:00 AM 59.0 °F 57.2 °F 94% 29.98 in 6.2 mi NNE 4.6 mph - N/A Rain Light Rain
6:30 AM 59.0 °F 57.2 °F 94% 30.01 in 6.2 mi NE 2.3 mph - N/A   Partly Cloudy
7:00 AM 59 °F 57 °F 90% 30.02 in 9 mi Calm Calm - -   Partly Cloudy
7:00 AM 59.0 °F 57.2 °F 94% 30.01 in 6.2 mi NE 5.8 mph - N/A   Mostly Cloudy
7:30 AM 59.0 °F 57.2 °F 94% 30.04 in 5.6 mi ENE 5.8 mph - N/A Rain Light Rain
8:00 AM 59.0 °F 57.2 °F 94% 30.04 in 6.2 mi North 4.6 mph - N/A   Scattered Clouds
8:30 AM 59.0 °F 57.2 °F 94% 30.04 in 6.2 mi North 4.6 mph - N/A   Mostly Cloudy
9:00 AM 59.0 °F 59.0 °F 100% 30.06 in 6.2 mi WNW 3.5 mph - N/A   Mostly Cloudy
9:30 AM 59.0 °F 59.0 °F 100% 30.06 in 6.2 mi Variable 2.3 mph - N/A   Mostly Cloudy
10:00 AM 60.8 °F 59.0 °F 94% 30.06 in 6.2 mi Variable 2.3 mph - N/A   Scattered Clouds
10:30 AM 64.4 °F 57.2 °F 77% 30.09 in 6.2 mi NNE 13.8 mph - N/A   Mostly Cloudy
11:00 AM 64.4 °F 57.2 °F 77% 30.09 in 6.2 mi NNE 16.1 mph - N/A   Mostly Cloudy
11:30 AM 64.4 °F 57.2 °F 77% 30.09 in 6.2 mi NNE 19.6 mph - N/A   Mostly Cloudy
12:00 PM 66.2 °F 57.2 °F 73% 30.09 in 6.2 mi NNE 17.3 mph - N/A   Scattered Clouds
12:30 PM 66.2 °F 57.2 °F 73% 30.09 in 6.2 mi NE 16.1 mph - N/A   Scattered Clouds
12:37 PM 66.2 °F 57.2 °F 73% 30.09 in 6.2 mi NNE 21.9 mph 34.5 mph N/A   Scattered Clouds
1:00 PM 64 °F 57 °F 70% 30.12 in 16 mi NE 13.8 mph - -   Mostly Cloudy
1:00 PM 64.4 °F 57.2 °F 77% 30.09 in 6.2 mi NNE 17.3 mph - N/A   Scattered Clouds
1:30 PM 66.2 °F 55.4 °F 68% 30.09 in 6.2 mi NNE 19.6 mph - N/A   Scattered Clouds
2:00 PM 66.2 °F 55.4 °F 68% 30.09 in 6.2 mi NNE 19.6 mph - N/A   Scattered Clouds
2:30 PM 66.2 °F 55.4 °F 68% 30.09 in 6.2 mi NNE 19.6 mph - N/A   Scattered Clouds
3:00 PM 66.2 °F 53.6 °F 64% 30.09 in 6.2 mi NNE 18.4 mph - N/A   Partly Cloudy
3:30 PM 66.2 °F 51.8 °F 60% 30.12 in 6.2 mi NE 17.3 mph - N/A   Partly Cloudy
4:00 PM 66.2 °F 51.8 °F 60% 30.12 in 6.2 mi NNE 11.5 mph - N/A   Partly Cloudy
4:30 PM 64.4 °F 53.6 °F 68% 30.12 in 6.2 mi NNE 12.7 mph - N/A   Partly Cloudy
5:00 PM 62.6 °F 53.6 °F 72% 30.12 in - NNE 11.5 mph - N/A   Clear
5:30 PM 62.6 °F 53.6 °F 72% 30.12 in 6.2 mi NE 13.8 mph - N/A   Partly Cloudy
6:00 PM 60.8 °F 51.8 °F 72% 30.15 in 6.2 mi NE 12.7 mph - N/A   Partly Cloudy
6:30 PM 59.0 °F 51.8 °F 77% 30.15 in 6.2 mi NE 3.5 mph - N/A   Partly Cloudy
7:00 PM 59.0 °F 51.8 °F 77% 30.18 in 6.2 mi East 3.5 mph - N/A   Partly Cloudy
7:30 PM 55.4 °F 51.8 °F 88% 30.18 in 6.2 mi ENE 3.5 mph - N/A   Partly Cloudy
8:00 PM 55.4 °F 50.0 °F 82% 30.21 in 6.2 mi NE 5.8 mph - N/A   Partly Cloudy
8:30 PM 55.4 °F 50.0 °F 82% 30.21 in 6.2 mi NE 3.5 mph - N/A   Partly Cloudy
9:00 PM 55.4 °F 50.0 °F 82% 30.21 in 6.2 mi Variable 1.2 mph - N/A   Partly Cloudy
9:30 PM 53.6 °F 50.0 °F 88% 30.24 in 6.2 mi Calm Calm - N/A   Partly Cloudy
10:00 PM 53.6 °F 48.2 °F 82% 30.24 in 6.2 mi North 1.2 mph - N/A   Partly Cloudy
10:30 PM 51.8 °F 50.0 °F 94% 30.24 in 6.2 mi ENE 3.5 mph - N/A   Partly Cloudy
11:00 PM 51.8 °F 50.0 °F 94% 30.24 in 6.2 mi Calm Calm - N/A   Partly Cloudy
11:30 PM 50.0 °F 48.2 °F 94% 30.24 in 6.2 mi NE 2.3 mph - N/A   Partly Cloudy